Time,TemperatureF,DewpointF,PressureIn,WindDirection,WindDirectionDegrees,WindSpeedMPH,WindSpeedGustMPH,Humidity,HourlyPrecipIn,Conditions,Clouds,dailyrainin,SoftwareType,DateUTC
2013-03-03 00:01:00,51.7,47.6,30.05,ESE,108,0.0,0.0,86,0.00,,,0.00,Wunderground v.1.12,2013-03-03 08:01:00,
2013-03-03 00:07:00,51.7,47.6,30.05,ESE,109,1.0,1.0,86,0.00,,,0.00,Wunderground v.1.12,2013-03-03 08:07:00,
2013-03-03 00:12:00,51.7,48.0,30.05,ESE,108,0.0,1.0,87,0.00,,,0.00,Wunderground v.1.12,2013-03-03 08:12:00,
2013-03-03 00:17:00,51.6,47.9,30.04,ESE,103,1.0,1.0,87,0.00,,,0.00,Wunderground v.1.12,2013-03-03 08:17:00,
2013-03-03 00:22:00,51.6,47.9,30.04,SE,125,0.0,1.0,87,0.00,,,0.00,Wunderground v.1.12,2013-03-03 08:22:00,
2013-03-03 00:27:00,51.8,47.7,30.04,SE,125,0.0,0.0,86,0.00,,,0.00,Wunderground v.1.12,2013-03-03 08:27:00,
2013-03-03 00:32:00,51.8,47.7,30.05,SE,125,0.0,0.0,86,0.00,,,0.00,Wunderground v.1.12,2013-03-03 08:32:00,
2013-03-03 00:38:00,51.9,47.8,30.05,SE,126,1.0,1.0,86,0.00,,,0.00,Wunderground v.1.12,2013-03-03 08:38:00,
2013-03-03 00:43:00,51.8,47.7,30.05,SE,125,0.0,0.0,86,0.00,,,0.00,Wunderground v.1.12,2013-03-03 08:43:00,
2013-03-03 00:48:00,51.7,47.6,30.05,SE,125,0.0,0.0,86,0.00,,,0.00,Wunderground v.1.12,2013-03-03 08:48:00,
2013-03-03 00:54:00,51.4,48.0,30.05,East,86,1.0,1.0,88,0.00,,,0.00,Wunderground v.1.12,2013-03-03 08:54:00,
2013-03-03 01:00:00,51.4,48.0,30.06,NE,36,1.0,1.0,88,0.00,,,0.00,Wunderground v.1.12,2013-03-03 09:00:00,
2013-03-03 01:05:00,51.4,48.0,30.06,NE,40,1.0,1.0,88,0.00,,,0.00,Wunderground v.1.12,2013-03-03 09:05:00,
2013-03-03 01:11:00,51.4,48.0,30.06,NE,44,2.0,2.0,88,0.00,,,0.00,Wunderground v.1.12,2013-03-03 09:11:00,
2013-03-03 01:16:00,51.3,47.9,30.06,North,11,0.0,1.0,88,0.00,,,0.00,Wunderground v.1.12,2013-03-03 09:16:00,
2013-03-03 01:21:00,51.2,47.8,30.06,NE,42,0.0,1.0,88,0.00,,,0.00,Wunderground v.1.12,2013-03-03 09:21:00,
2013-03-03 01:27:00,51.1,47.7,30.06,NE,34,0.0,1.0,88,0.00,,,0.00,Wunderground v.1.12,2013-03-03 09:27:00,
2013-03-03 01:32:00,51.1,47.7,30.05,NE,37,2.0,2.0,88,0.00,,,0.00,Wunderground v.1.12,2013-03-03 09:32:00,
2013-03-03 01:37:00,51.0,47.9,30.05,NE,49,0.0,1.0,89,0.00,,,0.00,Wunderground v.1.12,2013-03-03 09:37:00,
2013-03-03 01:43:00,50.9,47.8,30.05,West,279,0.0,1.0,89,0.00,,,0.00,Wunderground v.1.12,2013-03-03 09:43:00,
2013-03-03 01:48:00,50.9,47.8,30.06,NW,311,2.0,2.0,89,0.00,,,0.00,Wunderground v.1.12,2013-03-03 09:48:00,
2013-03-03 01:54:00,51.0,47.6,30.06,NNW,335,1.0,2.0,88,0.00,,,0.00,Wunderground v.1.12,2013-03-03 09:54:00,
2013-03-03 01:59:00,51.0,47.6,30.06,NNE,29,0.0,3.0,88,0.00,,,0.00,Wunderground v.1.12,2013-03-03 09:59:00,
2013-03-03 02:04:00,51.0,47.6,30.06,West,271,2.0,2.0,88,0.00,,,0.00,Wunderground v.1.12,2013-03-03 10:04:00,
2013-03-03 02:09:00,51.0,47.6,30.06,West,279,1.0,1.0,88,0.00,,,0.00,Wunderground v.1.12,2013-03-03 10:09:00,
2013-03-03 02:15:00,50.9,47.5,30.06,WNW,295,1.0,1.0,88,0.00,,,0.00,Wunderground v.1.12,2013-03-03 10:15:00,
2013-03-03 02:20:00,50.9,47.5,30.06,NW,323,1.0,1.0,88,0.00,,,0.00,Wunderground v.1.12,2013-03-03 10:20:00,
2013-03-03 02:25:00,50.8,47.4,30.06,NW,321,0.0,1.0,88,0.00,,,0.00,Wunderground v.1.12,2013-03-03 10:25:00,
2013-03-03 02:30:00,50.8,47.4,30.06,West,279,2.0,3.0,88,0.00,,,0.00,Wunderground v.1.12,2013-03-03 10:30:00,
2013-03-03 02:35:00,50.7,47.3,30.06,NW,323,1.0,1.0,88,0.00,,,0.00,Wunderground v.1.12,2013-03-03 10:35:00,
2013-03-03 02:40:00,50.6,47.5,30.06,WNW,295,1.0,2.0,89,0.00,,,0.00,Wunderground v.1.12,2013-03-03 10:40:00,
2013-03-03 02:46:00,50.5,47.4,30.06,NW,315,0.0,1.0,89,0.00,,,0.00,Wunderground v.1.12,2013-03-03 10:46:00,
2013-03-03 02:51:00,50.4,47.3,30.06,NNW,329,0.0,1.0,89,0.00,,,0.00,Wunderground v.1.12,2013-03-03 10:51:00,
2013-03-03 02:56:00,50.3,47.2,30.06,NE,39,1.0,3.0,89,0.00,,,0.00,Wunderground v.1.12,2013-03-03 10:56:00,
2013-03-03 03:01:00,50.3,47.2,30.06,NE,45,2.0,3.0,89,0.00,,,0.00,Wunderground v.1.12,2013-03-03 11:01:00,
2013-03-03 03:06:00,50.1,47.3,30.06,NE,38,1.0,1.0,90,0.00,,,0.00,Wunderground v.1.12,2013-03-03 11:06:00,
2013-03-03 03:11:00,50.0,47.2,30.06,NW,324,0.0,1.0,90,0.00,,,0.00,Wunderground v.1.12,2013-03-03 11:11:00,
2013-03-03 03:16:00,49.8,47.0,30.05,WNW,283,1.0,2.0,90,0.00,,,0.00,Wunderground v.1.12,2013-03-03 11:16:00,
2013-03-03 03:21:00,49.7,46.9,30.05,WNW,283,0.0,1.0,90,0.00,,,0.00,Wunderground v.1.12,2013-03-03 11:21:00,
2013-03-03 03:26:00,49.6,46.8,30.05,WNW,283,0.0,1.0,90,0.00,,,0.00,Wunderground v.1.12,2013-03-03 11:26:00,
2013-03-03 03:31:00,49.5,46.7,30.05,NW,319,0.0,1.0,90,0.00,,,0.00,Wunderground v.1.12,2013-03-03 11:31:00,
2013-03-03 03:36:00,49.5,46.7,30.05,NW,319,0.0,0.0,90,0.00,,,0.00,Wunderground v.1.12,2013-03-03 11:36:00,
2013-03-03 03:41:00,49.4,46.9,30.05,NW,319,0.0,1.0,91,0.00,,,0.00,Wunderground v.1.12,2013-03-03 11:41:00,
2013-03-03 03:47:00,49.3,46.8,30.06,NW,325,0.0,1.0,91,0.00,,,0.00,Wunderground v.1.12,2013-03-03 11:47:00,
2013-03-03 03:52:00,49.3,46.8,30.06,NE,35,2.0,2.0,91,0.00,,,0.00,Wunderground v.1.12,2013-03-03 11:52:00,
2013-03-03 03:57:00,49.2,46.7,30.06,NE,42,0.0,1.0,91,0.00,,,0.00,Wunderground v.1.12,2013-03-03 11:57:00,
2013-03-03 04:02:00,49.1,46.6,30.06,NE,56,1.0,1.0,91,0.00,,,0.00,Wunderground v.1.12,2013-03-03 12:02:00,
2013-03-03 04:07:00,49.1,46.6,30.06,NE,55,0.0,1.0,91,0.00,,,0.00,Wunderground v.1.12,2013-03-03 12:07:00,
2013-03-03 04:12:00,49.0,46.5,30.06,NE,54,0.0,2.0,91,0.00,,,0.00,Wunderground v.1.12,2013-03-03 12:12:00,
2013-03-03 04:17:00,49.0,46.8,30.05,NE,54,0.0,0.0,92,0.00,,,0.00,Wunderground v.1.12,2013-03-03 12:17:00,
2013-03-03 04:22:00,48.9,46.7,30.05,NE,54,0.0,1.0,92,0.00,,,0.00,Wunderground v.1.12,2013-03-03 12:22:00,
2013-03-03 04:28:00,48.8,46.6,30.05,NE,54,0.0,0.0,92,0.00,,,0.00,Wunderground v.1.12,2013-03-03 12:28:00,
2013-03-03 04:33:00,48.7,46.5,30.05,NE,54,0.0,0.0,92,0.00,,,0.00,Wunderground v.1.12,2013-03-03 12:33:00,
2013-03-03 04:38:00,48.7,46.5,30.05,NE,54,0.0,0.0,92,0.00,,,0.00,Wunderground v.1.12,2013-03-03 12:38:00,
2013-03-03 04:43:00,48.7,46.5,30.05,NE,54,0.0,0.0,92,0.00,,,0.00,Wunderground v.1.12,2013-03-03 12:43:00,
2013-03-03 04:49:00,48.6,46.4,30.05,NE,54,0.0,0.0,92,0.00,,,0.00,Wunderground v.1.12,2013-03-03 12:49:00,
2013-03-03 04:54:00,48.6,46.4,30.05,NE,54,0.0,0.0,92,0.00,,,0.00,Wunderground v.1.12,2013-03-03 12:54:00,
2013-03-03 04:59:00,48.5,46.6,30.05,NE,54,0.0,0.0,93,0.00,,,0.00,Wunderground v.1.12,2013-03-03 12:59:00,
2013-03-03 05:04:00,48.5,46.6,30.05,NE,54,0.0,1.0,93,0.00,,,0.00,Wunderground v.1.12,2013-03-03 13:04:00,
2013-03-03 05:09:00,48.5,46.6,30.05,NE,54,0.0,1.0,93,0.00,,,0.00,Wunderground v.1.12,2013-03-03 13:09:00,
2013-03-03 05:14:00,48.5,46.6,30.05,NE,54,0.0,0.0,93,0.00,,,0.00,Wunderground v.1.12,2013-03-03 13:14:00,
2013-03-03 05:19:00,48.4,46.5,30.06,NE,54,0.0,1.0,93,0.00,,,0.00,Wunderground v.1.12,2013-03-03 13:19:00,
2013-03-03 05:24:00,48.4,46.5,30.06,NE,54,0.0,0.0,93,0.00,,,0.00,Wunderground v.1.12,2013-03-03 13:24:00,
2013-03-03 05:29:00,48.4,46.5,30.06,NE,54,0.0,0.0,93,0.00,,,0.00,Wunderground v.1.12,2013-03-03 13:29:00,
2013-03-03 05:34:00,48.4,46.5,30.06,NE,53,1.0,1.0,93,0.00,,,0.00,Wunderground v.1.12,2013-03-03 13:34:00,
2013-03-03 05:39:00,48.5,46.6,30.06,SW,217,0.0,1.0,93,0.00,,,0.00,Wunderground v.1.12,2013-03-03 13:39:00,
2013-03-03 05:44:00,48.5,46.6,30.06,SW,217,0.0,1.0,93,0.00,,,0.00,Wunderground v.1.12,2013-03-03 13:44:00,
2013-03-03 05:49:00,48.5,46.6,30.06,SW,218,0.0,1.0,93,0.00,,,0.00,Wunderground v.1.12,2013-03-03 13:49:00,
2013-03-03 05:54:00,48.4,46.5,30.06,SW,218,0.0,0.0,93,0.00,,,0.00,Wunderground v.1.12,2013-03-03 13:54:00,
2013-03-03 05:59:00,48.4,46.5,30.06,SW,219,0.0,0.0,93,0.00,,,0.00,Wunderground v.1.12,2013-03-03 13:59:00,
2013-03-03 06:05:00,48.3,46.4,30.06,SW,218,0.0,0.0,93,0.00,,,0.00,Wunderground v.1.12,2013-03-03 14:05:00,
2013-03-03 06:10:00,48.3,46.7,30.06,SW,217,0.0,0.0,94,0.00,,,0.00,Wunderground v.1.12,2013-03-03 14:10:00,
2013-03-03 06:15:00,48.3,46.7,30.06,SW,217,0.0,0.0,94,0.00,,,0.00,Wunderground v.1.12,2013-03-03 14:15:00,
2013-03-03 06:20:00,48.4,46.8,30.06,SW,214,0.0,0.0,94,0.00,,,0.00,Wunderground v.1.12,2013-03-03 14:20:00,
2013-03-03 06:26:00,48.3,46.7,30.06,SW,214,0.0,0.0,94,0.00,,,0.00,Wunderground v.1.12,2013-03-03 14:26:00,
2013-03-03 06:31:00,48.3,46.7,30.06,SSW,213,0.0,0.0,94,0.00,,,0.00,Wunderground v.1.12,2013-03-03 14:31:00,
2013-03-03 06:36:00,48.2,46.6,30.06,SW,214,0.0,0.0,94,0.00,,,0.00,Wunderground v.1.12,2013-03-03 14:36:00,
2013-03-03 06:41:00,48.1,46.5,30.06,SW,214,0.0,0.0,94,0.00,,,0.00,Wunderground v.1.12,2013-03-03 14:41:00,
2013-03-03 06:46:00,48.2,46.6,30.06,SW,214,1.0,1.0,94,0.00,,,0.00,Wunderground v.1.12,2013-03-03 14:46:00,
2013-03-03 06:51:00,48.3,46.7,30.06,SW,215,0.0,0.0,94,0.00,,,0.00,Wunderground v.1.12,2013-03-03 14:51:00,
2013-03-03 06:56:00,48.3,46.7,30.06,SW,215,1.0,1.0,94,0.00,,,0.00,Wunderground v.1.12,2013-03-03 14:56:00,
2013-03-03 07:01:00,48.3,46.7,30.06,SW,215,0.0,0.0,94,0.00,,,0.00,Wunderground v.1.12,2013-03-03 15:01:00,
2013-03-03 07:06:00,48.3,46.7,30.06,SW,215,0.0,0.0,94,0.00,,,0.00,Wunderground v.1.12,2013-03-03 15:06:00,
2013-03-03 07:11:00,48.3,46.7,30.06,SW,215,0.0,0.0,94,0.00,,,0.00,Wunderground v.1.12,2013-03-03 15:11:00,
2013-03-03 07:16:00,48.3,46.7,30.06,SW,215,0.0,0.0,94,0.00,,,0.00,Wunderground v.1.12,2013-03-03 15:16:00,
2013-03-03 07:21:00,48.3,46.7,30.06,SW,215,0.0,0.0,94,0.00,,,0.00,Wunderground v.1.12,2013-03-03 15:21:00,
2013-03-03 07:26:00,48.4,46.8,30.06,SW,215,0.0,0.0,94,0.00,,,0.00,Wunderground v.1.12,2013-03-03 15:26:00,
2013-03-03 07:31:00,48.5,46.9,30.06,SW,215,0.0,0.0,94,0.00,,,0.00,Wunderground v.1.12,2013-03-03 15:31:00,
2013-03-03 07:36:00,48.5,46.9,30.06,SW,215,0.0,0.0,94,0.00,,,0.00,Wunderground v.1.12,2013-03-03 15:36:00,
2013-03-03 07:41:00,48.6,47.0,30.06,SW,215,0.0,0.0,94,0.00,,,0.00,Wunderground v.1.12,2013-03-03 15:41:00,
2013-03-03 07:46:00,48.7,47.1,30.06,SW,215,0.0,0.0,94,0.00,,,0.00,Wunderground v.1.12,2013-03-03 15:46:00,
2013-03-03 07:51:00,48.8,47.2,30.06,SW,215,0.0,0.0,94,0.00,,,0.00,Wunderground v.1.12,2013-03-03 15:51:00,
2013-03-03 07:56:00,49.0,47.3,30.06,SW,215,0.0,0.0,94,0.00,,,0.00,Wunderground v.1.12,2013-03-03 15:56:00,
2013-03-03 08:01:00,49.2,47.5,30.06,SW,215,1.0,1.0,94,0.00,,,0.00,Wunderground v.1.12,2013-03-03 16:01:00,
2013-03-03 08:06:00,49.5,47.6,30.06,South,169,0.0,0.0,93,0.00,,,0.00,Wunderground v.1.12,2013-03-03 16:06:00,
2013-03-03 08:11:00,49.8,47.9,30.06,South,171,0.0,1.0,93,0.00,,,0.00,Wunderground v.1.12,2013-03-03 16:11:00,
2013-03-03 08:16:00,49.9,47.7,30.06,WNW,286,0.0,2.0,92,0.00,,,0.00,Wunderground v.1.12,2013-03-03 16:16:00,
2013-03-03 08:21:00,50.2,48.0,30.06,WNW,286,0.0,1.0,92,0.00,,,0.00,Wunderground v.1.12,2013-03-03 16:21:00,
2013-03-03 08:27:00,50.6,48.1,30.06,NE,39,0.0,2.0,91,0.00,,,0.00,Wunderground v.1.12,2013-03-03 16:27:00,
2013-03-03 08:32:00,51.0,48.5,30.06,NE,38,1.0,2.0,91,0.00,,,0.00,Wunderground v.1.12,2013-03-03 16:32:00,
2013-03-03 08:37:00,51.3,48.5,30.06,NE,38,1.0,2.0,90,0.00,,,0.00,Wunderground v.1.12,2013-03-03 16:37:00,
2013-03-03 08:42:00,52.0,48.9,30.06,NE,38,1.0,1.0,89,0.00,,,0.00,Wunderground v.1.12,2013-03-03 16:42:00,
2013-03-03 08:47:00,52.9,49.4,30.06,NW,311,0.0,3.0,88,0.00,,,0.00,Wunderground v.1.12,2013-03-03 16:47:00,
2013-03-03 08:52:00,54.1,50.0,30.06,NE,49,1.0,3.0,86,0.00,,,0.00,Wunderground v.1.12,2013-03-03 16:52:00,
2013-03-03 08:57:00,55.0,50.6,30.06,NNW,329,1.0,2.0,85,0.00,,,0.00,Wunderground v.1.12,2013-03-03 16:57:00,
2013-03-03 09:02:00,55.2,50.1,30.06,NE,39,1.0,2.0,83,0.00,,,0.00,Wunderground v.1.12,2013-03-03 17:02:00,
2013-03-03 09:07:00,54.7,49.3,30.06,NE,39,0.0,1.0,82,0.00,,,0.00,Wunderground v.1.12,2013-03-03 17:07:00,
2013-03-03 09:12:00,55.0,49.6,30.06,West,280,2.0,2.0,82,0.00,,,0.00,Wunderground v.1.12,2013-03-03 17:12:00,
2013-03-03 09:17:00,55.6,50.2,30.06,NW,307,0.0,1.0,82,0.00,,,0.00,Wunderground v.1.12,2013-03-03 17:17:00,
2013-03-03 09:23:00,56.6,50.5,30.06,NW,325,0.0,2.0,80,0.00,,,0.00,Wunderground v.1.12,2013-03-03 17:23:00,
2013-03-03 09:28:00,56.3,49.9,30.06,NW,311,1.0,5.0,79,0.00,,,0.00,Wunderground v.1.12,2013-03-03 17:28:00,
2013-03-03 09:33:00,56.4,50.0,30.06,WNW,295,2.0,3.0,79,0.00,,,0.00,Wunderground v.1.12,2013-03-03 17:33:00,
2013-03-03 09:38:00,56.3,50.2,30.06,NW,323,1.0,3.0,80,0.00,,,0.00,Wunderground v.1.12,2013-03-03 17:38:00,
2013-03-03 09:44:00,56.6,49.8,30.06,WNW,302,2.0,3.0,78,0.00,,,0.00,Wunderground v.1.12,2013-03-03 17:44:00,
2013-03-03 09:49:00,56.2,49.4,30.06,WSW,246,0.0,2.0,78,0.00,,,0.00,Wunderground v.1.12,2013-03-03 17:49:00,
2013-03-03 09:54:00,56.6,50.2,30.06,WNW,298,2.0,2.0,79,0.00,,,0.00,Wunderground v.1.12,2013-03-03 17:54:00,
2013-03-03 09:59:00,57.4,50.6,30.06,NE,39,2.0,3.0,78,0.00,,,0.00,Wunderground v.1.12,2013-03-03 17:59:00,
2013-03-03 10:04:00,58.2,51.0,30.06,NW,311,2.0,3.0,77,0.00,,,0.00,Wunderground v.1.12,2013-03-03 18:04:00,
2013-03-03 10:09:00,58.5,51.0,30.06,NW,311,1.0,4.0,76,0.00,,,0.00,Wunderground v.1.12,2013-03-03 18:09:00,
2013-03-03 10:14:00,58.8,51.2,30.06,WNW,292,4.0,4.0,76,0.00,,,0.00,Wunderground v.1.12,2013-03-03 18:14:00,
2013-03-03 10:19:00,58.7,51.2,30.06,WNW,295,1.0,3.0,76,0.00,,,0.00,Wunderground v.1.12,2013-03-03 18:19:00,
2013-03-03 10:24:00,59.1,50.8,30.06,NW,305,1.0,3.0,74,0.00,,,0.00,Wunderground v.1.12,2013-03-03 18:24:00,
2013-03-03 10:29:00,59.1,50.5,30.06,WSW,248,4.0,5.0,73,0.00,,,0.00,Wunderground v.1.12,2013-03-03 18:29:00,
2013-03-03 10:34:00,58.6,50.3,30.06,WNW,296,2.0,4.0,74,0.00,,,0.00,Wunderground v.1.12,2013-03-03 18:34:00,
2013-03-03 10:40:00,58.5,50.2,30.06,WNW,303,4.0,4.0,74,0.00,,,0.00,Wunderground v.1.12,2013-03-03 18:40:00,
2013-03-03 10:45:00,58.8,50.5,30.06,NE,39,1.0,2.0,74,0.00,,,0.00,Wunderground v.1.12,2013-03-03 18:45:00,
2013-03-03 10:50:00,59.5,50.5,30.05,NE,41,2.0,2.0,72,0.00,,,0.00,Wunderground v.1.12,2013-03-03 18:50:00,
2013-03-03 10:55:00,60.5,51.8,30.05,NW,323,1.0,2.0,73,0.00,,,0.00,Wunderground v.1.12,2013-03-03 18:55:00,
2013-03-03 11:01:00,61.4,51.5,30.04,NW,319,2.0,2.0,70,0.00,,,0.00,Wunderground v.1.12,2013-03-03 19:01:00,
2013-03-03 11:06:00,61.7,51.8,30.04,NNW,327,1.0,2.0,70,0.00,,,0.00,Wunderground v.1.12,2013-03-03 19:06:00,
2013-03-03 11:11:00,62.4,52.1,30.04,NE,34,2.0,3.0,69,0.00,,,0.00,Wunderground v.1.12,2013-03-03 19:11:00,
2013-03-03 11:16:00,63.4,52.2,30.04,WNW,291,3.0,3.0,67,0.00,,,0.00,Wunderground v.1.12,2013-03-03 19:16:00,
2013-03-03 11:21:00,63.8,51.4,30.04,NW,326,1.0,3.0,64,0.00,,,0.00,Wunderground v.1.12,2013-03-03 19:21:00,
2013-03-03 11:26:00,63.8,51.8,30.04,NE,36,2.0,4.0,65,0.00,,,0.00,Wunderground v.1.12,2013-03-03 19:26:00,
2013-03-03 11:31:00,64.3,51.0,30.04,WNW,286,3.0,3.0,62,0.00,,,0.00,Wunderground v.1.12,2013-03-03 19:31:00,
2013-03-03 11:36:00,65.1,52.6,30.04,East,84,2.0,2.0,64,0.00,,,0.00,Wunderground v.1.12,2013-03-03 19:36:00,
2013-03-03 11:41:00,65.5,50.8,30.04,NW,305,2.0,4.0,59,0.00,,,0.00,Wunderground v.1.12,2013-03-03 19:41:00,
2013-03-03 11:46:00,65.7,50.0,30.03,SE,135,1.0,2.0,57,0.00,,,0.00,Wunderground v.1.12,2013-03-03 19:46:00,
2013-03-03 11:51:00,66.4,50.7,30.03,NNW,327,0.0,2.0,57,0.00,,,0.00,Wunderground v.1.12,2013-03-03 19:51:00,
2013-03-03 11:56:00,66.8,50.1,30.03,SE,133,1.0,2.0,55,0.00,,,0.00,Wunderground v.1.12,2013-03-03 19:56:00,
2013-03-03 12:02:00,67.4,51.6,30.03,NW,312,3.0,4.0,57,0.00,,,0.00,Wunderground v.1.12,2013-03-03 20:02:00,
2013-03-03 12:07:00,67.5,50.3,30.03,ENE,63,0.0,5.0,54,0.00,,,0.00,Wunderground v.1.12,2013-03-03 20:07:00,
2013-03-03 12:12:00,67.2,50.5,30.03,NE,43,1.0,2.0,55,0.00,,,0.00,Wunderground v.1.12,2013-03-03 20:12:00,
2013-03-03 12:17:00,68.1,49.3,30.02,East,93,1.0,4.0,51,0.00,,,0.00,Wunderground v.1.12,2013-03-03 20:17:00,
2013-03-03 12:22:00,68.3,49.5,30.02,NNE,28,4.0,6.0,51,0.00,,,0.00,Wunderground v.1.12,2013-03-03 20:22:00,
2013-03-03 12:27:00,68.6,49.7,30.02,NE,38,4.0,4.0,51,0.00,,,0.00,Wunderground v.1.12,2013-03-03 20:27:00,
2013-03-03 12:32:00,68.4,48.5,30.01,NNE,21,2.0,5.0,49,0.00,,,0.00,Wunderground v.1.12,2013-03-03 20:32:00,
2013-03-03 12:37:00,68.7,48.8,30.01,ENE,58,1.0,6.0,49,0.00,,,0.00,Wunderground v.1.12,2013-03-03 20:37:00,
2013-03-03 12:42:00,69.5,48.9,30.01,NNW,327,1.0,4.0,48,0.00,,,0.00,Wunderground v.1.12,2013-03-03 20:42:00,
2013-03-03 12:48:00,69.7,46.8,30.00,East,88,1.0,3.0,44,0.00,,,0.00,Wunderground v.1.12,2013-03-03 20:48:00,
2013-03-03 12:53:00,69.3,48.2,30.00,South,183,1.0,3.0,47,0.00,,,0.00,Wunderground v.1.12,2013-03-03 20:53:00,
2013-03-03 12:58:00,69.7,49.1,30.00,NNE,33,2.0,6.0,48,0.00,,,0.00,Wunderground v.1.12,2013-03-03 20:58:00,
2013-03-03 13:03:00,69.7,50.2,29.99,NNE,28,2.0,4.0,50,0.00,,,0.00,Wunderground v.1.12,2013-03-03 21:03:00,
2013-03-03 13:08:00,69.3,48.8,29.99,WNW,284,1.0,3.0,48,0.00,,,0.00,Wunderground v.1.12,2013-03-03 21:08:00,
2013-03-03 13:13:00,68.9,50.0,29.99,NE,41,2.0,3.0,51,0.00,,,0.00,Wunderground v.1.12,2013-03-03 21:13:00,
2013-03-03 13:18:00,68.8,49.4,29.99,NE,48,4.0,5.0,50,0.00,,,0.00,Wunderground v.1.12,2013-03-03 21:18:00,
2013-03-03 13:23:00,69.0,50.6,29.99,NNE,13,3.0,6.0,52,0.00,,,0.00,Wunderground v.1.12,2013-03-03 21:23:00,
2013-03-03 13:28:00,69.2,50.8,29.99,NNE,20,4.0,9.0,52,0.00,,,0.00,Wunderground v.1.12,2013-03-03 21:28:00,
2013-03-03 13:33:00,68.4,50.1,29.98,NNE,26,4.0,11.0,52,0.00,,,0.00,Wunderground v.1.12,2013-03-03 21:33:00,
2013-03-03 13:38:00,67.8,50.5,29.98,NE,51,2.0,7.0,54,0.00,,,0.00,Wunderground v.1.12,2013-03-03 21:38:00,
2013-03-03 13:43:00,67.8,50.0,29.98,NNE,32,3.0,6.0,53,0.00,,,0.00,Wunderground v.1.12,2013-03-03 21:43:00,
2013-03-03 13:49:00,68.3,50.0,29.98,NNE,24,2.0,6.0,52,0.00,,,0.00,Wunderground v.1.12,2013-03-03 21:49:00,
2013-03-03 13:54:00,68.0,49.2,29.98,WNW,296,2.0,7.0,51,0.00,,,0.00,Wunderground v.1.12,2013-03-03 21:54:00,
2013-03-03 13:59:00,68.0,50.7,29.98,NNE,27,6.0,6.0,54,0.00,,,0.00,Wunderground v.1.12,2013-03-03 21:59:00,
2013-03-03 14:04:00,67.9,49.6,29.98,NW,315,2.0,8.0,52,0.00,,,0.00,Wunderground v.1.12,2013-03-03 22:04:00,
2013-03-03 14:09:00,68.0,49.2,29.98,WNW,296,4.0,6.0,51,0.00,,,0.00,Wunderground v.1.12,2013-03-03 22:09:00,
2013-03-03 14:14:00,67.4,49.2,29.98,NNW,340,3.0,6.0,52,0.00,,,0.00,Wunderground v.1.12,2013-03-03 22:14:00,
2013-03-03 14:19:00,67.3,49.1,29.98,NE,44,5.0,7.0,52,0.00,,,0.00,Wunderground v.1.12,2013-03-03 22:19:00,
2013-03-03 14:24:00,67.3,49.6,29.98,NW,311,4.0,5.0,53,0.00,,,0.00,Wunderground v.1.12,2013-03-03 22:24:00,
2013-03-03 14:29:00,67.5,48.7,29.98,NNW,333,3.0,10.0,51,0.00,,,0.00,Wunderground v.1.12,2013-03-03 22:29:00,
2013-03-03 14:34:00,67.2,48.5,29.98,West,277,4.0,11.0,51,0.00,,,0.00,Wunderground v.1.12,2013-03-03 22:34:00,
2013-03-03 14:39:00,67.2,48.5,29.98,NW,306,2.0,9.0,51,0.00,,,0.00,Wunderground v.1.12,2013-03-03 22:39:00,
2013-03-03 14:44:00,67.4,48.6,29.98,WNW,303,4.0,9.0,51,0.00,,,0.00,Wunderground v.1.12,2013-03-03 22:44:00,
2013-03-03 14:50:00,67.1,48.9,29.98,NW,317,4.0,4.0,52,0.00,,,0.00,Wunderground v.1.12,2013-03-03 22:50:00,
2013-03-03 14:55:00,67.2,48.5,29.98,West,274,3.0,4.0,51,0.00,,,0.00,Wunderground v.1.12,2013-03-03 22:55:00,
2013-03-03 15:00:00,66.9,48.2,29.98,NW,315,5.0,5.0,51,0.00,,,0.00,Wunderground v.1.12,2013-03-03 23:00:00,
2013-03-03 15:05:00,66.8,48.6,29.98,North,11,6.0,7.0,52,0.00,,,0.00,Wunderground v.1.12,2013-03-03 23:05:00,
2013-03-03 15:10:00,67.0,48.3,29.98,WNW,286,5.0,6.0,51,0.00,,,0.00,Wunderground v.1.12,2013-03-03 23:10:00,
2013-03-03 15:15:00,67.3,48.5,29.98,NW,326,3.0,6.0,51,0.00,,,0.00,Wunderground v.1.12,2013-03-03 23:15:00,
2013-03-03 15:20:00,67.2,48.5,29.98,WNW,298,2.0,5.0,51,0.00,,,0.00,Wunderground v.1.12,2013-03-03 23:20:00,
2013-03-03 15:25:00,67.3,49.1,29.98,NE,34,1.0,4.0,52,0.00,,,0.00,Wunderground v.1.12,2013-03-03 23:25:00,
2013-03-03 15:30:00,67.5,48.7,29.97,NE,36,4.0,4.0,51,0.00,,,0.00,Wunderground v.1.12,2013-03-03 23:30:00,
2013-03-03 15:35:00,67.2,47.9,29.97,West,277,3.0,3.0,50,0.00,,,0.00,Wunderground v.1.12,2013-03-03 23:35:00,
2013-03-03 15:40:00,67.1,48.4,29.97,WNW,283,3.0,6.0,51,0.00,,,0.00,Wunderground v.1.12,2013-03-03 23:40:00,
2013-03-03 15:45:00,66.9,48.7,29.97,NNW,339,4.0,4.0,52,0.00,,,0.00,Wunderground v.1.12,2013-03-03 23:45:00,
2013-03-03 15:50:00,66.6,48.4,29.97,NW,318,2.0,4.0,52,0.00,,,0.00,Wunderground v.1.12,2013-03-03 23:50:00,
2013-03-03 15:55:00,66.8,48.1,29.97,WNW,294,7.0,11.0,51,0.00,,,0.00,Wunderground v.1.12,2013-03-03 23:55:00,
2013-03-03 16:01:00,66.3,47.6,29.97,WNW,292,6.0,7.0,51,0.00,,,0.00,Wunderground v.1.12,2013-03-04 00:01:00,
2013-03-03 16:06:00,66.2,47.5,29.97,NW,304,5.0,9.0,51,0.00,,,0.00,Wunderground v.1.12,2013-03-04 00:06:00,
2013-03-03 16:11:00,65.7,47.1,29.97,WNW,287,6.0,9.0,51,0.00,,,0.00,Wunderground v.1.12,2013-03-04 00:11:00,
2013-03-03 16:16:00,65.4,46.8,29.97,NNW,331,3.0,6.0,51,0.00,,,0.00,Wunderground v.1.12,2013-03-04 00:16:00,
2013-03-03 16:21:00,65.4,46.8,29.97,NE,36,10.0,13.0,51,0.00,,,0.00,Wunderground v.1.12,2013-03-04 00:21:00,
2013-03-03 16:26:00,65.2,46.1,29.97,NNW,338,4.0,11.0,50,0.00,,,0.00,Wunderground v.1.12,2013-03-04 00:26:00,
2013-03-03 16:31:00,64.7,47.7,29.98,WNW,283,9.0,11.0,54,0.00,,,0.00,Wunderground v.1.12,2013-03-04 00:31:00,
2013-03-03 16:36:00,64.2,48.6,29.98,NNW,329,4.0,9.0,57,0.00,,,0.00,Wunderground v.1.12,2013-03-04 00:36:00,
2013-03-03 16:41:00,63.7,49.1,29.98,NW,311,4.0,7.0,59,0.00,,,0.00,Wunderground v.1.12,2013-03-04 00:41:00,
2013-03-03 16:47:00,63.3,48.3,29.98,West,280,7.0,10.0,58,0.00,,,0.00,Wunderground v.1.12,2013-03-04 00:47:00,
2013-03-03 16:52:00,62.9,48.3,29.98,WNW,302,5.0,10.0,59,0.00,,,0.00,Wunderground v.1.12,2013-03-04 00:52:00,
2013-03-03 16:57:00,62.3,48.7,29.98,NNW,329,4.0,6.0,61,0.00,,,0.00,Wunderground v.1.12,2013-03-04 00:57:00,
2013-03-03 17:02:00,62.0,48.8,29.98,WNW,283,2.0,7.0,62,0.00,,,0.00,Wunderground v.1.12,2013-03-04 01:02:00,
2013-03-03 17:07:00,61.6,48.4,29.98,NW,317,2.0,6.0,62,0.00,,,0.00,Wunderground v.1.12,2013-03-04 01:07:00,
2013-03-03 17:12:00,61.0,48.3,29.98,NE,34,2.0,12.0,63,0.00,,,0.00,Wunderground v.1.12,2013-03-04 01:12:00,
2013-03-03 17:17:00,60.5,48.3,29.99,NNW,331,3.0,10.0,64,0.00,,,0.00,Wunderground v.1.12,2013-03-04 01:17:00,
2013-03-03 17:22:00,60.2,48.4,29.99,NW,317,3.0,13.0,65,0.00,,,0.00,Wunderground v.1.12,2013-03-04 01:22:00,
2013-03-03 17:27:00,59.9,48.5,29.99,West,276,11.0,11.0,66,0.00,,,0.00,Wunderground v.1.12,2013-03-04 01:27:00,
2013-03-03 17:32:00,59.3,48.3,30.00,NNE,23,3.0,7.0,67,0.00,,,0.00,Wunderground v.1.12,2013-03-04 01:32:00,
2013-03-03 17:37:00,58.9,48.4,30.00,NNW,348,4.0,6.0,68,0.00,,,0.00,Wunderground v.1.12,2013-03-04 01:37:00,
2013-03-03 17:42:00,58.5,48.0,30.00,NW,323,3.0,5.0,68,0.00,,,0.00,Wunderground v.1.12,2013-03-04 01:42:00,
2013-03-03 17:47:00,58.1,48.0,30.00,West,265,1.0,6.0,69,0.00,,,0.00,Wunderground v.1.12,2013-03-04 01:47:00,
2013-03-03 17:52:00,57.8,48.1,30.00,WSW,254,2.0,4.0,70,0.00,,,0.00,Wunderground v.1.12,2013-03-04 01:52:00,
2013-03-03 17:58:00,57.2,47.5,30.00,NW,306,3.0,6.0,70,0.00,,,0.00,Wunderground v.1.12,2013-03-04 01:58:00,
2013-03-03 18:03:00,56.7,47.8,30.01,NE,34,2.0,4.0,72,0.00,,,0.00,Wunderground v.1.12,2013-03-04 02:03:00,
2013-03-03 18:08:00,56.2,47.3,30.01,NE,39,1.0,3.0,72,0.00,,,0.00,Wunderground v.1.12,2013-03-04 02:08:00,
2013-03-03 18:13:00,55.7,47.5,30.01,WNW,284,2.0,4.0,74,0.00,,,0.00,Wunderground v.1.12,2013-03-04 02:13:00,
2013-03-03 18:18:00,55.3,47.2,30.02,NE,37,2.0,4.0,74,0.00,,,0.00,Wunderground v.1.12,2013-03-04 02:18:00,
2013-03-03 18:23:00,54.9,47.1,30.02,NE,39,2.0,4.0,75,0.00,,,0.00,Wunderground v.1.12,2013-03-04 02:23:00,
2013-03-03 18:28:00,54.6,47.2,30.02,NW,321,2.0,7.0,76,0.00,,,0.00,Wunderground v.1.12,2013-03-04 02:28:00,
2013-03-03 18:33:00,54.2,46.8,30.02,WNW,290,3.0,3.0,76,0.00,,,0.00,Wunderground v.1.12,2013-03-04 02:33:00,
2013-03-03 18:38:00,53.9,46.9,30.02,NW,313,1.0,4.0,77,0.00,,,0.00,Wunderground v.1.12,2013-03-04 02:38:00,
2013-03-03 18:43:00,53.6,46.9,30.02,NE,41,0.0,2.0,78,0.00,,,0.00,Wunderground v.1.12,2013-03-04 02:43:00,
2013-03-03 18:48:00,53.2,46.9,30.03,NNE,26,2.0,2.0,79,0.00,,,0.00,Wunderground v.1.12,2013-03-04 02:48:00,
2013-03-03 18:53:00,52.8,46.5,30.03,North,11,2.0,4.0,79,0.00,,,0.00,Wunderground v.1.12,2013-03-04 02:53:00,
2013-03-03 18:59:00,52.4,46.4,30.03,NE,42,3.0,4.0,80,0.00,,,0.00,Wunderground v.1.12,2013-03-04 02:59:00,
2013-03-03 19:04:00,52.0,46.3,30.03,NNE,22,2.0,4.0,81,0.00,,,0.00,Wunderground v.1.12,2013-03-04 03:04:00,
2013-03-03 19:09:00,51.6,46.3,30.03,NNW,333,2.0,4.0,82,0.00,,,0.00,Wunderground v.1.12,2013-03-04 03:09:00,
2013-03-03 19:14:00,51.3,46.0,30.03,NNE,17,3.0,6.0,82,0.00,,,0.00,Wunderground v.1.12,2013-03-04 03:14:00,
2013-03-03 19:19:00,51.0,46.0,30.03,NE,35,1.0,7.0,83,0.00,,,0.00,Wunderground v.1.12,2013-03-04 03:19:00,
2013-03-03 19:24:00,50.8,45.8,30.03,NE,42,1.0,4.0,83,0.00,,,0.00,Wunderground v.1.12,2013-03-04 03:24:00,
2013-03-03 19:29:00,50.5,45.8,30.03,NE,42,1.0,4.0,84,0.00,,,0.00,Wunderground v.1.12,2013-03-04 03:29:00,
2013-03-03 19:34:00,50.3,45.6,30.03,NE,43,0.0,4.0,84,0.00,,,0.00,Wunderground v.1.12,2013-03-04 03:34:00,
2013-03-03 19:39:00,50.0,45.7,30.03,NE,42,3.0,4.0,85,0.00,,,0.00,Wunderground v.1.12,2013-03-04 03:39:00,
2013-03-03 19:44:00,49.8,45.5,30.03,NW,314,2.0,5.0,85,0.00,,,0.00,Wunderground v.1.12,2013-03-04 03:44:00,
2013-03-03 19:49:00,49.6,45.6,30.03,NNE,27,3.0,4.0,86,0.00,,,0.00,Wunderground v.1.12,2013-03-04 03:49:00,
2013-03-03 19:54:00,49.3,45.3,30.03,NE,38,1.0,3.0,86,0.00,,,0.00,Wunderground v.1.12,2013-03-04 03:54:00,
2013-03-03 19:59:00,49.1,45.4,30.03,NE,40,1.0,4.0,87,0.00,,,0.00,Wunderground v.1.12,2013-03-04 03:59:00,
2013-03-03 20:05:00,48.8,45.1,30.04,NE,42,1.0,2.0,87,0.00,,,0.00,Wunderground v.1.12,2013-03-04 04:05:00,
2013-03-03 20:10:00,48.6,44.9,30.04,NE,42,0.0,1.0,87,0.00,,,0.00,Wunderground v.1.12,2013-03-04 04:10:00,
2013-03-03 20:15:00,48.4,45.0,30.04,NE,42,0.0,1.0,88,0.00,,,0.00,Wunderground v.1.12,2013-03-04 04:15:00,
2013-03-03 20:20:00,48.2,44.8,30.04,NE,42,0.0,0.0,88,0.00,,,0.00,Wunderground v.1.12,2013-03-04 04:20:00,
2013-03-03 20:25:00,48.1,45.0,30.04,NE,47,0.0,0.0,89,0.00,,,0.00,Wunderground v.1.12,2013-03-04 04:25:00,
2013-03-03 20:30:00,47.9,44.8,30.04,NE,47,0.0,1.0,89,0.00,,,0.00,Wunderground v.1.12,2013-03-04 04:30:00,
2013-03-03 20:35:00,47.7,44.6,30.04,NE,47,0.0,1.0,89,0.00,,,0.00,Wunderground v.1.12,2013-03-04 04:35:00,
2013-03-03 20:40:00,47.6,44.8,30.04,NE,51,2.0,3.0,90,0.00,,,0.00,Wunderground v.1.12,2013-03-04 04:40:00,
2013-03-03 20:46:00,47.4,44.6,30.05,NE,51,0.0,2.0,90,0.00,,,0.00,Wunderground v.1.12,2013-03-04 04:46:00,
2013-03-03 20:51:00,47.3,44.5,30.05,NE,49,1.0,1.0,90,0.00,,,0.00,Wunderground v.1.12,2013-03-04 04:51:00,
2013-03-03 20:56:00,47.2,44.4,30.05,NE,46,1.0,2.0,90,0.00,,,0.00,Wunderground v.1.12,2013-03-04 04:56:00,
2013-03-03 21:00:00,47.1,44.6,30.05,WNW,294,1.0,2.0,91,0.00,,,0.00,Wunderground v.1.12,2013-03-04 05:00:00,
2013-03-03 21:05:00,46.9,44.4,30.05,NE,45,1.0,1.0,91,0.00,,,0.00,Wunderground v.1.12,2013-03-04 05:05:00,
2013-03-03 21:10:00,46.8,44.3,30.05,NE,42,0.0,1.0,91,0.00,,,0.00,Wunderground v.1.12,2013-03-04 05:10:00,
2013-03-03 21:15:00,46.7,44.2,30.06,NE,49,1.0,1.0,91,0.00,,,0.00,Wunderground v.1.12,2013-03-04 05:15:00,
2013-03-03 21:20:00,46.7,44.2,30.06,NE,52,0.0,1.0,91,0.00,,,0.00,Wunderground v.1.12,2013-03-04 05:20:00,
2013-03-03 21:25:00,46.5,44.0,30.06,NE,53,0.0,0.0,91,0.00,,,0.00,Wunderground v.1.12,2013-03-04 05:25:00,
2013-03-03 21:30:00,46.3,43.8,30.06,NE,52,0.0,0.0,91,0.00,,,0.00,Wunderground v.1.12,2013-03-04 05:30:00,
2013-03-03 21:36:00,46.1,43.9,30.06,NE,53,0.0,0.0,92,0.00,,,0.00,Wunderground v.1.12,2013-03-04 05:36:00,
2013-03-03 21:41:00,46.1,43.9,30.06,NE,53,0.0,1.0,92,0.00,,,0.00,Wunderground v.1.12,2013-03-04 05:41:00,
2013-03-03 21:46:00,46.1,43.9,30.06,NE,52,0.0,0.0,92,0.00,,,0.00,Wunderground v.1.12,2013-03-04 05:46:00,
2013-03-03 21:51:00,46.1,44.2,30.06,NE,53,0.0,0.0,93,0.00,,,0.00,Wunderground v.1.12,2013-03-04 05:51:00,
2013-03-03 21:56:00,46.0,44.1,30.06,NE,53,0.0,0.0,93,0.00,,,0.00,Wunderground v.1.12,2013-03-04 05:56:00,
2013-03-03 22:01:00,46.1,44.2,30.07,NE,52,0.0,0.0,93,0.00,,,0.00,Wunderground v.1.12,2013-03-04 06:01:00,
2013-03-03 22:06:00,46.1,44.2,30.07,NE,53,0.0,0.0,93,0.00,,,0.00,Wunderground v.1.12,2013-03-04 06:06:00,
2013-03-03 22:11:00,46.0,44.1,30.07,NE,53,0.0,0.0,93,0.00,,,0.00,Wunderground v.1.12,2013-03-04 06:11:00,
2013-03-03 22:16:00,45.9,44.0,30.07,NE,52,0.0,0.0,93,0.00,,,0.00,Wunderground v.1.12,2013-03-04 06:16:00,
2013-03-03 22:21:00,46.0,44.1,30.07,NE,52,0.0,0.0,93,0.00,,,0.00,Wunderground v.1.12,2013-03-04 06:21:00,
2013-03-03 22:26:00,46.2,44.3,30.07,NE,52,0.0,1.0,93,0.00,,,0.00,Wunderground v.1.12,2013-03-04 06:26:00,
2013-03-03 22:31:00,46.2,44.3,30.06,NE,52,0.0,0.0,93,0.00,,,0.00,Wunderground v.1.12,2013-03-04 06:31:00,
2013-03-03 22:36:00,46.1,44.2,30.06,NE,52,0.0,0.0,93,0.00,,,0.00,Wunderground v.1.12,2013-03-04 06:36:00,
2013-03-03 22:41:00,46.1,44.2,30.06,NE,52,0.0,0.0,93,0.00,,,0.00,Wunderground v.1.12,2013-03-04 06:41:00,
2013-03-03 22:46:00,46.1,44.2,30.06,NE,53,0.0,0.0,93,0.00,,,0.00,Wunderground v.1.12,2013-03-04 06:46:00,
2013-03-03 22:51:00,46.1,44.5,30.06,NE,53,0.0,1.0,94,0.00,,,0.00,Wunderground v.1.12,2013-03-04 06:51:00,
2013-03-03 22:56:00,46.1,44.5,30.06,NE,52,0.0,0.0,94,0.00,,,0.00,Wunderground v.1.12,2013-03-04 06:56:00,
2013-03-03 23:02:00,46.2,44.6,30.06,NE,52,0.0,1.0,94,0.00,,,0.00,Wunderground v.1.12,2013-03-04 07:02:00,
2013-03-03 23:07:00,46.2,44.6,30.06,NE,52,1.0,1.0,94,0.00,,,0.00,Wunderground v.1.12,2013-03-04 07:07:00,
2013-03-03 23:12:00,46.3,44.7,30.06,NE,52,0.0,0.0,94,0.00,,,0.00,Wunderground v.1.12,2013-03-04 07:12:00,
2013-03-03 23:17:00,46.4,44.8,30.05,NE,52,0.0,1.0,94,0.00,,,0.00,Wunderground v.1.12,2013-03-04 07:17:00,
2013-03-03 23:22:00,46.4,44.8,30.05,NE,52,0.0,0.0,94,0.00,,,0.00,Wunderground v.1.12,2013-03-04 07:22:00,
2013-03-03 23:27:00,46.5,44.9,30.05,NE,53,0.0,0.0,94,0.00,,,0.00,Wunderground v.1.12,2013-03-04 07:27:00,
2013-03-03 23:32:00,46.5,44.9,30.06,NE,55,0.0,1.0,94,0.00,,,0.00,Wunderground v.1.12,2013-03-04 07:32:00,
2013-03-03 23:37:00,46.5,44.9,30.06,NE,55,0.0,0.0,94,0.00,,,0.00,Wunderground v.1.12,2013-03-04 07:37:00,
2013-03-03 23:42:00,46.5,44.6,30.06,East,87,0.0,1.0,93,0.00,,,0.00,Wunderground v.1.12,2013-03-04 07:42:00,
2013-03-03 23:47:00,46.5,44.6,30.06,East,88,0.0,1.0,93,0.00,,,0.00,Wunderground v.1.12,2013-03-04 07:47:00,
2013-03-03 23:52:00,46.4,44.8,30.06,East,94,1.0,2.0,94,0.00,,,0.00,Wunderground v.1.12,2013-03-04 07:52:00,
2013-03-03 23:57:00,46.3,44.7,30.06,SE,125,0.0,1.0,94,0.00,,,0.00,Wunderground v.1.12,2013-03-04 07:57:00,